This is the latest recevied weather packets stored in our database for station/object IU0KRR-10. If no packets are shown the sender has not sent any weather packets the latest 10 day(s).
| Time | Temp. | Humidity | Pressure | Rain* | Wind** | Luminosity | Snow |
|---|---|---|---|---|---|---|---|
| 1777744674 | 30° C | 14% | 877.2 hPa | - | - | - | - |
| 1777743774 | 29.44° C | 15% | 877 hPa | - | - | - | - |
| 1777742874 | 29.44° C | 15% | 877.1 hPa | - | - | - | - |
| 1777741974 | 28.89° C | 15% | 877.1 hPa | - | - | - | - |
| 1777741074 | 28.89° C | 15% | 877.2 hPa | - | - | - | - |
| 1777740209 | 28.89° C | 15% | 877.3 hPa | - | - | - | - |
| 1777740174 | 28.89° C | 15% | 877.3 hPa | - | - | - | - |
| 1777739273 | 28.89° C | 15% | 877.3 hPa | - | - | - | - |
| 1777738373 | 28.89° C | 15% | 877.4 hPa | - | - | - | - |
| 1777737473 | 28.89° C | 15% | 877.4 hPa | - | - | - | - |
| 1777736573 | 28.89° C | 15% | 877.6 hPa | - | - | - | - |
| 1777735672 | 28.89° C | 15% | 877.6 hPa | - | - | - | - |
| 1777734772 | 29.44° C | 15% | 877.7 hPa | - | - | - | - |
| 1777733872 | 29.44° C | 15% | 877.8 hPa | - | - | - | - |
| 1777732972 | 28.89° C | 15% | 877.7 hPa | - | - | - | - |
| 1777732072 | 28.33° C | 15% | 877.9 hPa | - | - | - | - |
| 1777731172 | 28.33° C | 15% | 878 hPa | - | - | - | - |
| 1777730272 | 28.33° C | 15% | 878.2 hPa | - | - | - | - |
| 1777729372 | 27.78° C | 16% | 878.2 hPa | - | - | - | - |
| 1777728471 | 27.78° C | 16% | 878.3 hPa | - | - | - | - |
| 1777727571 | 27.22° C | 16% | 878.3 hPa | - | - | - | - |
| 1777726671 | 26.67° C | 17% | 878.5 hPa | - | - | - | - |
| 1777725771 | 27.22° C | 17% | 878.6 hPa | - | - | - | - |
| 1777724871 | 27.22° C | 15% | 878.7 hPa | - | - | - | - |
| 1777723970 | 27.22° C | 15% | 878.7 hPa | - | - | - | - |
* Rain since midnight (hover to see other rain measurements)
** Current wind speed in m/s (hover to see current wind gust speed)